SM5FGQ-2 Weather Reports


time (UTC)temp
C
wind
direction
speed
KPH
gust
KPH
rain 1hr
cm
rain 24hr
cm
rain mn
cm
humidity
%
barometer
mb
20260508023054 0 180 1.6 3.2 0.00 0.00 0.00 80 1019.2
20260508020025 -1 180 0.0 3.2 0.00 0.00 0.00 76 1019.1
20260508013115 0 180 1.6 3.2 0.00 0.00 0.00 74 1018.8
20260508010106 0 180 0.0 3.2 0.00 0.00 0.00 72 1018.5
20260508003057 0 180 0.0 3.2 0.00 0.00 0.00 71 1018.2
20260508000048 1 180 0.0 1.6 0.00 0.00 0.00 68 1017.9
20260507233038 1 180 0.0 3.2 0.00 0.00 0.00 66 1017.6
20260507230029 1 180 0.0 3.2 0.00 0.00 0.00 62 1017.3
20260507223102 2 180 0.0 4.8 0.00 0.00 0.00 60 1017.1
20260507220110 3 180 0.0 3.2 0.00 0.00 0.00 57 1016.9
20260507213102 3 180 0.0 3.2 0.00 0.00 0.00 52 1016.8
20260507210051 5 180 0.0 4.8 0.00 0.00 0.00 50 1016.4
20260507203042 5 180 0.0 3.2 0.00 0.00 0.00 47 1016.0
20260507200031 6 180 1.6 4.8 0.00 0.00 0.00 45 1015.6
20260507193022 7 180 0.0 4.8 0.00 0.00 0.00 39 1015.1
20260507190112 8 180 0.0 3.2 0.00 0.00 0.00 33 1014.7
20260507183104 10 180 1.6 3.2 0.00 0.00 0.00 31 1014.4
20260507180115 11 180 1.6 4.8 0.00 0.00 0.00 29 1014.1
20260507173043 13 143 3.2 9.7 0.00 0.00 0.00 27 1013.6
20260507170034 15 159 3.2 11.3 0.00 0.00 0.00 28 1013.2
20260507163026 16 159 4.8 14.5 0.00 0.00 0.00 30 1012.9
20260507160136 16 190 4.8 9.7 0.00 0.00 0.00 30 1012.8
20260507153106 15 191 4.8 14.5 0.00 0.00 0.00 30 1012.4
20260507150057 15 145 4.8 12.9 0.00 0.00 0.00 29 1012.3
20260507143047 15 156 4.8 11.3 0.00 0.00 0.00 30 1012.1
20260507140038 16 149 4.8 14.5 0.00 0.00 0.00 30 1012.0
20260507133027 16 342 8.0 19.3 0.00 0.00 0.00 31 1011.8
20260507130017 16 307 6.4 16.1 0.00 0.00 0.00 30 1011.8
20260507123108 16 312 4.8 9.7 0.00 0.00 0.00 32 1011.7
20260507120100 15 291 3.2 11.3 0.00 0.00 0.00 33 1011.6
20260507113049 15 311 3.2 8.0 0.00 0.00 0.00 34 1011.6
20260507110041 15 307 1.6 9.7 0.00 0.00 0.00 35 1011.5
20260507103029 15 244 3.2 11.3 0.00 0.00 0.00 35 1011.4
20260507100100 15 185 3.2 9.7 0.00 0.00 0.00 35 1011.3
20260507093109 15 230 3.2 11.3 0.00 0.00 0.00 35 1011.3
20260507090100 14 156 3.2 11.3 0.00 0.00 0.00 35 1011.3
20260507083112 14 172 3.2 8.0 0.00 0.00 0.00 35 1011.1
20260507080040 16 171 3.2 9.7 0.00 0.00 0.00 32 1011.0
20260507073111 20 151 3.2 8.0 0.00 0.00 0.00 29 1011.0
20260507070021 18 180 3.2 8.0 0.00 0.00 0.00 34 1010.9
20260507063111 12 180 1.6 4.8 0.00 0.03 0.00 55 1010.9
20260507060123 5 193 1.6 6.4 0.00 0.03 0.00 76 1010.8
20260507053052 3 162 1.6 4.8 0.00 0.03 0.00 84 1010.8
20260507050042 0 135 1.6 4.8 0.00 0.03 0.00 85 1010.7
20260507043032 0 135 1.6 3.2 0.00 0.03 0.00 84 1010.4
20260507040022 -1 135 1.6 3.2 0.00 0.03 0.00 82 1010.3
20260507033113 -1 135 0.0 3.2 0.00 0.03 0.00 81 1010.2
20260507030104 -1 135 1.6 3.2 0.00 0.03 0.00 80 1010.3